K9MWM-1 Weather Reports


Display with metric or nautical units.
time (UTC)temp
F
wind
direction
speed
MPH
gust
MPH
rain 1hr
in
rain 24hr
in
rain mn
in
humidity
%
barometer
mb
20260504150744 49 156 0.0 0.0 0.00 0.00 0.00
20260504150232 49 125 0.0 2.0 0.00 0.00 0.00
20260504141023 46 110 0.0 0.0 0.00 0.00 0.00
20260504140510 46 107 0.0 0.0 0.00 0.00 0.00
20260504130236 45 337 0.0 0.0 0.00 0.00 0.00
20260504110240 42 337 0.0 0.0 0.00 0.00 0.00
20260504100519 42 112 0.0 0.0 0.00 0.00 0.00
20260504081549 45 120 0.0 0.0 0.00 0.00 0.00
20260504081036 44 337 0.0 0.0 0.00 0.00 0.00
20260504080524 44 106 0.0 0.0 0.00 0.00 0.00
20260504070250 44 45 0.0 0.0 0.00 0.00 0.00
20260504050254 47 337 0.0 0.0 0.00 0.00 0.00
20260504045741 48 306 0.0 0.0 0.00 0.00 0.00
20260504045229 48 337 0.0 0.0 0.00 0.00 0.00
20260504044203 48 337 0.0 0.0 0.00 0.00 0.00
20260504043650 49 337 0.0 0.0 0.00 0.00 0.00
20260504043137 49 337 0.0 0.0 0.00 0.00 0.00
20260504042624 49 346 0.0 0.0 0.00 0.00 0.00
20260504042111 49 343 0.0 0.0 0.00 0.00 0.00
20260504041559 49 337 0.0 0.0 0.00 0.00 0.00
20260504041046 49 337 0.0 0.0 0.00 0.00 0.00
20260504040533 49 337 0.0 0.0 0.00 0.00 0.00
20260504040020 49 103 0.0 0.0 0.00 0.00 0.00
20260504035507 50 90 0.0 0.0 0.00 0.00 0.00
20260504034954 50 337 0.0 0.0 0.00 0.00 0.00
20260504034441 51 337 0.0 0.0 0.00 0.00 0.00
20260504033929 51 337 0.0 0.0 0.00 0.00 0.00
20260504033416 52 337 0.0 0.0 0.00 0.00 0.00
20260504032903 52 337 0.0 0.0 0.00 0.00 0.00
20260504032350 53 91 0.0 0.0 0.00 0.00 0.00
20260504031837 53 331 0.0 0.0 0.00 0.00 0.00
20260504031325 53 337 0.0 0.0 0.00 0.00 0.00
20260504030811 54 180 0.0 0.0 0.00 0.00 0.00
20260504030259 55 326 0.0 0.0 0.00 0.00 0.00
20260504025746 55 114 0.0 0.0 0.00 0.00 0.00
20260504025233 55 315 0.0 0.0 0.00 0.00 0.00
20260504024720 56 90 0.0 0.0 0.00 0.00 0.00
20260504024207 56 202 0.0 0.0 0.00 0.00 0.00
20260504023655 57 123 0.0 0.0 0.00 0.00 0.00
20260504023143 57 270 0.0 0.0 0.00 0.00 0.00
20260504022629 57 0 0.0 0.0 0.00 0.00 0.00
20260504022116 57 337 0.0 0.0 0.00 0.00 0.00
20260504021603 58 337 0.0 0.0 0.00 0.00 0.00
20260504021051 58 337 0.0 0.0 0.00 0.00 0.00
20260504020537 58 144 0.0 0.0 0.00 0.00 0.00
20260504020025 59 337 0.0 0.0 0.00 0.00 0.00
20260504015512 59 337 0.0 0.0 0.00 0.00 0.00
20260504014959 60 315 0.0 0.0 0.00 0.00 0.00
20260504014446 61 112 0.0 0.0 0.00 0.00 0.00
20260504013933 62 180 0.0 0.0 0.00 0.00 0.00
20260504013421 63 90 0.0 0.0 0.00 0.00 0.00
20260504012908 64 337 0.0 0.0 0.00 0.00 0.00
20260504011842 66 247 0.0 0.0 0.00 0.00 0.00
20260504011329 66 336 0.0 2.0 0.00 0.00 0.00
20260504010817 66 352 0.0 1.0 0.00 0.00 0.00
20260504010303 66 101 0.0 1.0 0.00 0.00 0.00
20260504005238 66 5 0.0 1.0 0.00 0.00 0.00
20260504004725 66 333 0.0 0.0 0.00 0.00 0.00
20260504004212 67 334 0.0 0.0 0.00 0.00 0.00
20260504003659 67 323 0.0 0.0 0.00 0.00 0.00
20260504003146 69 330 0.0 1.0 0.00 0.00 0.00
20260504002634 71 316 0.0 3.0 0.00 0.00 0.00
20260504002121 74 322 0.0 0.0 0.00 0.00 0.00
20260504001608 76 316 0.0 8.0 0.00 0.00 0.00
20260504001055 76 332 0.0 1.0 0.00 0.00 0.00
20260504000542 76 328 0.0 3.0 0.00 0.00 0.00
20260504000029 76 326 0.0 0.0 0.00 0.00 0.00
20260503235516 76 324 0.0 9.0 0.00 0.00 0.00
20260503235004 76 326 0.0 4.0 0.00 0.00 0.00
20260503234451 75 322 0.0 3.0 0.00 0.00 0.00
20260503233938 74 324 0.0 4.0 0.00 0.00 0.00
20260503233425 75 341 0.0 0.0 0.00 0.00 0.00
20260503232912 76 320 1.0 9.0 0.00 0.00 0.00
20260503231848 76 327 0.0 0.0 0.00 0.00 0.00
20260503231334 74 321 0.0 5.0 0.00 0.00 0.00
20260503230821 74 316 0.0 11.0 0.00 0.00 0.00
20260503225755 76 356 0.0 1.0 0.00 0.00 0.00
20260503224730 75 347 0.0 0.0 0.00 0.00 0.00
20260503224217 76 319 0.0 12.0 0.00 0.00 0.00
20260503222638 76 316 0.0 7.0 0.00 0.00 0.00
20260503222126 76 323 0.0 1.0 0.00 0.00 0.00
20260503221613 77 316 5.0 8.0 0.00 0.00 0.00
20260503221100 76 315 0.0 4.0 0.00 0.00 0.00
20260503220547 76 324 0.0 1.0 0.00 0.00 0.00
20260503220034 76 319 0.0 10.0 0.00 0.00 0.00
20260503215521 76 322 1.0 4.0 0.00 0.00 0.00
20260503215008 77 318 0.0 10.0 0.00 0.00 0.00
20260503214455 76 330 1.0 9.0 0.00 0.00 0.00
20260503213943 77 319 1.0 8.0 0.00 0.00 0.00
20260503213430 77 320 0.0 6.0 0.00 0.00 0.00
20260503212917 77 321 0.0 5.0 0.00 0.00 0.00
20260503212404 76 331 0.0 5.0 0.00 0.00 0.00
20260503211852 76 356 0.0 3.0 0.00 0.00 0.00
20260503211339 75 318 0.0 5.0 0.00 0.00 0.00
20260503210826 74 335 0.0 4.0 0.00 0.00 0.00
20260503210313 74 316 0.0 4.0 0.00 0.00 0.00
20260503205800 75 330 0.0 0.0 0.00 0.00 0.00
20260503205247 76 318 0.0 2.0 0.00 0.00 0.00
20260503204734 76 339 7.0 9.0 0.00 0.00 0.00
20260503204221 77 322 0.0 5.0 0.00 0.00 0.00
20260503203709 77 348 0.0 5.0 0.00 0.00 0.00
20260503203156 76 330 0.0 4.0 0.00 0.00 0.00
20260503202643 76 336 1.0 6.0 0.00 0.00 0.00
20260503202130 75 318 7.0 10.0 0.00 0.00 0.00
20260503201617 74 0 0.0 0.0 0.00 0.00 0.00
20260503201105 74 331 0.0 1.0 0.00 0.00 0.00
20260503200552 75 331 0.0 9.0 0.00 0.00 0.00
20260503200039 76 329 0.0 6.0 0.00 0.00 0.00
20260503195526 75 327 0.0 2.0 0.00 0.00 0.00
20260503195013 76 322 0.0 8.0 0.00 0.00 0.00
20260503194500 76 335 0.0 7.0 0.00 0.00 0.00
20260503193947 76 328 0.0 3.0 0.00 0.00 0.00
20260503193435 76 327 4.0 6.0 0.00 0.00 0.00
20260503192922 76 325 0.0 0.0 0.00 0.00 0.00
20260503192409 75 327 0.0 3.0 0.00 0.00 0.00
20260503191856 74 326 0.0 8.0 0.00 0.00 0.00
20260503191343 74 331 0.0 2.0 0.00 0.00 0.00
20260503190831 72 333 0.0 1.0 0.00 0.00 0.00
20260503185805 71 327 0.0 4.0 0.00 0.00 0.00
20260503185252 71 326 0.0 2.0 0.00 0.00 0.00
20260503184739 72 324 0.0 1.0 0.00 0.00 0.00
20260503184226 72 306 6.0 9.0 0.00 0.00 0.00
20260503183713 72 315 0.0 3.0 0.00 0.00 0.00
20260503183201 71 326 3.0 7.0 0.00 0.00 0.00
20260503182648 71 324 0.0 7.0 0.00 0.00 0.00
20260503181622 71 316 0.0 0.0 0.00 0.00 0.00
20260503181109 70 317 0.0 5.0 0.00 0.00 0.00
20260503180557 72 316 0.0 4.0 0.00 0.00 0.00
20260503180044 73 321 0.0 3.0 0.00 0.00 0.00
20260503175531 73 320 0.0 5.0 0.00 0.00 0.00
20260503175018 73 323 0.0 4.0 0.00 0.00 0.00
20260503174505 73 333 0.0 6.0 0.00 0.00 0.00
20260503173952 73 320 0.0 10.0 0.00 0.00 0.00
20260503173439 73 323 0.0 7.0 0.00 0.00 0.00
20260503172926 73 341 0.0 5.0 0.00 0.00 0.00
20260503172414 73 320 0.0 8.0 0.00 0.00 0.00
20260503171901 75 327 0.0 8.0 0.00 0.00 0.00
20260503171348 74 323 0.0 0.0 0.00 0.00 0.00
20260503170835 74 333 0.0 0.0 0.00 0.00 0.00
20260503170322 74 351 1.0 2.0 0.00 0.00 0.00